Williston, ND

1:40 PM CDT on October 23, 2019 (GMT -0500)
Sloulin International

Weather History for KISN - August, 2019

Change the Weather History Date:

Thursday, August 29, 2019

  Actual Average Record
Temperature  
Mean Temperature 62 °F 65 °F  
Max Temperature 74 °F 80 °F 99 °F (2012)
Min Temperature 50 °F 50 °F 34 °F (1988)
Degree Days  
Heating Degree Days 3 3  
Month to date heating degree days 27 42  
Since 1 June heating degree days 112 186  
Since 1 July heating degree days 42 66  
Cooling Degree Days 0 3  
Month to date cooling degree days 133 160  
Year to date cooling degree days 377 423  
Since 1 June cooling degree days 371 410  
Growing Degree Days 12 (Base 50)    
Moisture  
Dew Point 43 °F    
Average Humidity 52    
Maximum Humidity 71    
Minimum Humidity 33    
Precipitation  
Precipitation 0.00 in 0.04 in 0.70 in (1920)
Month to date precipitation 1.96 1.36  
Year to date precipitation 11.62 11.03  
Sea Level Pressure  
Sea Level Pressure 30.06 in    
Wind  
Wind Speed 10 mph (NW)    
Max Wind Speed 20 mph    
Max Gust Speed 26 mph    
Visibility 10 miles    
Events      
T = Trace of Precipitation, MM = Missing Value Source: NWS Daily Summary

Daily Weather History Graph

Daily Weather History Graph

Search for Another Location

Airport or City:

Astronomy

Aug. 29, 2019 Rise Set
Actual Time 7:07 AM CDT 8:42 PM CDT
Civil Twilight 6:35 AM CDT 9:14 PM CDT
Nautical Twilight 5:55 AM CDT 9:54 PM CDT
Astronomical Twilight 5:12 AM CDT 10:37 PM CDT
Moon 5:46 AM CDT (8/29) 8:46 PM CDT (8/29)
Length of Visible Light 14h 39m
Length of Day
13h 34m
Waning Crescent, 1% of the Moon is Illuminated
Aug 29
Waning Crescent
Aug 30
New
Sep 5
First Quarter
Sep 13
Full
Sep 21
Last Quarter

Hourly Weather History & Observations

Time (CDT) Temp. Dew Point Humidity Pressure Visibility Wind Dir Wind Speed Gust Speed Precip Events Conditions
12:52 AM 57.9 °F 46.0 °F 65% 29.91 in 10.0 mi NW 15.0 mph - N/A   Clear
1:52 AM 57.0 °F 43.0 °F 59% 29.93 in 10.0 mi NNW 11.5 mph - N/A   Clear
2:52 AM 53.1 °F 42.1 °F 66% 29.95 in 10.0 mi NW 11.5 mph - N/A   Clear
3:52 AM 52.0 °F 41.0 °F 66% 29.98 in 10.0 mi WNW 9.2 mph - N/A   Clear
4:52 AM 53.1 °F 41.0 °F 64% 29.99 in 10.0 mi NW 16.1 mph 25.3 mph N/A   Clear
5:52 AM 54.0 °F 41.0 °F 62% 30.00 in 10.0 mi NW 17.3 mph 26.5 mph N/A   Clear
6:52 AM 52.0 °F 42.1 °F 69% 30.03 in 10.0 mi NW 12.7 mph - N/A   Clear
7:52 AM 51.1 °F 43.0 °F 74% 30.08 in 10.0 mi WNW 9.2 mph - N/A   Clear
8:52 AM 55.0 °F 44.1 °F 67% 30.09 in 10.0 mi NW 10.4 mph - N/A   Clear
9:52 AM 57.9 °F 46.0 °F 65% 30.10 in 10.0 mi North 13.8 mph - N/A   Clear
10:52 AM 62.1 °F 46.0 °F 56% 30.12 in 10.0 mi NNW 12.7 mph - N/A   Clear
11:52 AM 64.9 °F 46.0 °F 50% 30.12 in 10.0 mi NW 12.7 mph - N/A   Clear
12:52 PM 68.0 °F 45.0 °F 43% 30.12 in 10.0 mi NW 9.2 mph 21.9 mph N/A   Partly Cloudy
1:52 PM 70.0 °F 46.0 °F 42% 30.10 in 10.0 mi WNW 9.2 mph 19.6 mph N/A   Clear
2:52 PM 72.0 °F 43.0 °F 35% 30.10 in 10.0 mi WNW 13.8 mph 21.9 mph N/A   Clear
3:52 PM 73.0 °F 43.0 °F 34% 30.09 in 10.0 mi NW 13.8 mph - N/A   Clear
4:52 PM 72.0 °F 41.0 °F 33% 30.08 in 10.0 mi NNW 6.9 mph 19.6 mph N/A   Clear
5:52 PM 72.0 °F 42.1 °F 34% 30.08 in 10.0 mi NW 15.0 mph 21.9 mph N/A   Clear
6:52 PM 72.0 °F 42.1 °F 34% 30.09 in 10.0 mi NNW 9.2 mph - N/A   Clear
7:52 PM 69.1 °F 42.1 °F 38% 30.09 in 10.0 mi NNW 9.2 mph - N/A   Clear
8:52 PM 63.0 °F 43.0 °F 48% 30.10 in 10.0 mi NNW 6.9 mph - N/A   Clear
9:52 PM 60.1 °F 44.1 °F 55% 30.12 in 10.0 mi NNE 4.6 mph - N/A   Clear
10:52 PM 57.0 °F 43.0 °F 59% 30.14 in 10.0 mi North 6.9 mph - N/A   Clear
11:52 PM 54.0 °F 44.1 °F 69% 30.15 in 10.0 mi Calm Calm - N/A   Clear